Year,Month,Day,Hour,Minute,Value (Times are PST for temperature in C)
2006,09,11,00,00,11.40
2006,09,11,00,01,11.40
2006,09,11,00,02,11.40
2006,09,11,00,03,11.40
2006,09,11,00,04,11.40
2006,09,11,00,05,11.40
2006,09,11,00,06,11.40
2006,09,11,00,07,11.40
2006,09,11,00,08,11.40
2006,09,11,00,09,11.40
2006,09,11,00,10,11.40
2006,09,11,00,11,11.40
2006,09,11,00,12,11.50
2006,09,11,00,13,11.60
2006,09,11,00,14,11.60
2006,09,11,00,15,11.60
2006,09,11,00,16,11.60
2006,09,11,00,17,11.60
2006,09,11,00,18,11.70
2006,09,11,00,19,11.70
2006,09,11,00,20,11.70
2006,09,11,00,21,11.80
2006,09,11,00,22,11.80
2006,09,11,00,23,11.80
2006,09,11,00,24,11.80
2006,09,11,00,25,11.80
2006,09,11,00,26,11.80
2006,09,11,00,27,11.80
2006,09,11,00,28,11.80
2006,09,11,00,29,11.80
2006,09,11,00,30,11.80
2006,09,11,00,31,11.70
2006,09,11,00,32,11.70
2006,09,11,00,33,11.70
2006,09,11,00,34,11.60
2006,09,11,00,35,11.60
2006,09,11,00,36,11.60
2006,09,11,00,37,11.60
2006,09,11,00,38,11.60
2006,09,11,00,39,11.60
2006,09,11,00,40,11.60
2006,09,11,00,41,11.60
2006,09,11,00,42,11.60
2006,09,11,00,43,11.60
2006,09,11,00,44,11.60
2006,09,11,00,45,11.50
2006,09,11,00,46,11.40
2006,09,11,00,47,11.40
2006,09,11,00,48,11.40
2006,09,11,00,49,11.40
2006,09,11,00,50,11.40
2006,09,11,00,51,11.40
2006,09,11,00,52,11.40
2006,09,11,00,53,11.40
2006,09,11,00,54,11.30
2006,09,11,00,55,11.30
2006,09,11,00,56,11.30
2006,09,11,00,57,11.30
2006,09,11,00,58,11.30
2006,09,11,00,59,11.20
2006,09,11,01,00,11.20
2006,09,11,01,01,11.20
2006,09,11,01,02,11.20
2006,09,11,01,03,11.20
2006,09,11,01,04,11.10
2006,09,11,01,05,11.10
2006,09,11,01,06,11.10
2006,09,11,01,07,11.10
2006,09,11,01,08,11.10
2006,09,11,01,09,11.10
2006,09,11,01,10,11.10
2006,09,11,01,11,11.10
2006,09,11,01,12,11.10
2006,09,11,01,13,11.10
2006,09,11,01,14,11.10
2006,09,11,01,15,11.10
2006,09,11,01,16,11.10
2006,09,11,01,17,11.10
2006,09,11,01,18,11.10
2006,09,11,01,19,11.10
2006,09,11,01,20,11.10
2006,09,11,01,21,11.10
2006,09,11,01,22,11.10
2006,09,11,01,23,11.10
2006,09,11,01,24,11.10
2006,09,11,01,25,11.10
2006,09,11,01,26,11.10
2006,09,11,01,27,11.10
2006,09,11,01,28,11.10
2006,09,11,01,29,11.10
2006,09,11,01,30,11.10
2006,09,11,01,31,11.00
2006,09,11,01,32,10.90
2006,09,11,01,33,10.90
2006,09,11,01,34,10.90
2006,09,11,01,35,10.90
2006,09,11,01,36,10.90
2006,09,11,01,37,10.80
2006,09,11,01,38,10.80
2006,09,11,01,39,10.80
2006,09,11,01,40,10.70
2006,09,11,01,41,10.70
2006,09,11,01,42,10.70
2006,09,11,01,43,10.70
2006,09,11,01,44,10.60
2006,09,11,01,45,10.60
2006,09,11,01,46,10.60
2006,09,11,01,47,10.50
2006,09,11,01,48,10.40
2006,09,11,01,49,10.40
2006,09,11,01,50,10.30
2006,09,11,01,51,10.20
2006,09,11,01,52,10.20
2006,09,11,01,53,10.10
2006,09,11,01,54,10.10
2006,09,11,01,55,10.10
2006,09,11,01,56,9.90
2006,09,11,01,57,9.90
2006,09,11,01,58,9.90
2006,09,11,01,59,9.90
2006,09,11,02,00,9.90
2006,09,11,02,01,9.90
2006,09,11,02,02,9.90
2006,09,11,02,03,9.80
2006,09,11,02,04,9.80
2006,09,11,02,05,9.80
2006,09,11,02,06,9.80
2006,09,11,02,07,9.70
2006,09,11,02,08,9.70
2006,09,11,02,09,9.70
2006,09,11,02,10,9.70
2006,09,11,02,11,9.70
2006,09,11,02,12,9.70
2006,09,11,02,13,9.70
2006,09,11,02,14,9.70
2006,09,11,02,15,9.70
2006,09,11,02,16,9.60
2006,09,11,02,17,9.60
2006,09,11,02,18,9.60
2006,09,11,02,19,9.60
2006,09,11,02,20,9.60
2006,09,11,02,21,9.60
2006,09,11,02,22,9.60
2006,09,11,02,23,9.60
2006,09,11,02,24,9.60
2006,09,11,02,25,9.60
2006,09,11,02,26,9.60
2006,09,11,02,27,9.60
2006,09,11,02,28,9.60
2006,09,11,02,29,9.60
2006,09,11,02,30,9.60
2006,09,11,02,31,9.60
2006,09,11,02,32,9.60
2006,09,11,02,33,9.60
2006,09,11,02,34,9.60
2006,09,11,02,35,9.60
2006,09,11,02,36,9.70
2006,09,11,02,37,9.70
2006,09,11,02,38,9.70
2006,09,11,02,39,9.70
2006,09,11,02,40,9.70
2006,09,11,02,41,9.70
2006,09,11,02,42,9.70
2006,09,11,02,43,9.70
2006,09,11,02,44,9.70
2006,09,11,02,45,9.70
2006,09,11,02,46,9.70
2006,09,11,02,47,9.70
2006,09,11,02,48,9.70
2006,09,11,02,49,9.70
2006,09,11,02,50,9.70
2006,09,11,02,51,9.70
2006,09,11,02,52,9.70
2006,09,11,02,53,9.70
2006,09,11,02,54,9.70
2006,09,11,02,55,9.70
2006,09,11,02,56,9.70
2006,09,11,02,57,9.60
2006,09,11,02,58,9.60
2006,09,11,02,59,9.50
2006,09,11,03,00,9.50
2006,09,11,03,01,9.50
2006,09,11,03,02,9.50
2006,09,11,03,03,9.50
2006,09,11,03,04,9.40
2006,09,11,03,05,9.40
2006,09,11,03,06,9.40
2006,09,11,03,07,9.40
2006,09,11,03,08,9.40
2006,09,11,03,09,9.40
2006,09,11,03,10,9.40
2006,09,11,03,11,9.40
2006,09,11,03,12,9.40
2006,09,11,03,13,9.40
2006,09,11,03,14,9.40
2006,09,11,03,15,9.30
2006,09,11,03,16,9.20
2006,09,11,03,17,9.20
2006,09,11,03,18,9.10
2006,09,11,03,19,9.10
2006,09,11,03,20,9.00
2006,09,11,03,21,9.00
2006,09,11,03,22,8.90
2006,09,11,03,23,8.90
2006,09,11,03,24,8.80
2006,09,11,03,25,8.80
2006,09,11,03,26,8.70
2006,09,11,03,27,8.70
2006,09,11,03,28,8.70
2006,09,11,03,29,8.70
2006,09,11,03,30,8.60
2006,09,11,03,31,8.60
2006,09,11,03,32,8.60
2006,09,11,03,33,8.60
2006,09,11,03,34,8.50
2006,09,11,03,35,8.50
2006,09,11,03,36,8.50
2006,09,11,03,37,8.50
2006,09,11,03,38,8.50
2006,09,11,03,39,8.50
2006,09,11,03,40,8.50
2006,09,11,03,41,8.50
2006,09,11,03,42,8.50
2006,09,11,03,43,8.50
2006,09,11,03,44,8.50
2006,09,11,03,45,8.50
2006,09,11,03,46,8.50
2006,09,11,03,47,8.40
2006,09,11,03,48,8.40
2006,09,11,03,49,8.40
2006,09,11,03,50,8.30
2006,09,11,03,51,8.30
2006,09,11,03,52,8.30
2006,09,11,03,53,8.30
2006,09,11,03,54,8.30
2006,09,11,03,55,8.30
2006,09,11,03,56,8.30
2006,09,11,03,57,8.30
2006,09,11,03,58,8.30
2006,09,11,03,59,8.30
2006,09,11,04,00,8.30
2006,09,11,04,01,8.30
2006,09,11,04,02,8.20
2006,09,11,04,03,8.20
2006,09,11,04,04,8.20
2006,09,11,04,05,8.20
2006,09,11,04,06,8.20
2006,09,11,04,07,8.20
2006,09,11,04,08,8.20
2006,09,11,04,09,8.20
2006,09,11,04,10,8.20
2006,09,11,04,11,8.20
2006,09,11,04,12,8.20
2006,09,11,04,13,8.20
2006,09,11,04,14,8.20
2006,09,11,04,15,8.20
2006,09,11,04,16,8.20
2006,09,11,04,17,8.20
2006,09,11,04,18,8.20
2006,09,11,04,19,8.20
2006,09,11,04,20,8.20
2006,09,11,04,21,8.20
2006,09,11,04,22,8.20
2006,09,11,04,23,8.20
2006,09,11,04,24,8.20
2006,09,11,04,25,8.30
2006,09,11,04,26,8.30
2006,09,11,04,27,8.30
2006,09,11,04,28,8.30
2006,09,11,04,29,8.40
2006,09,11,04,30,8.40
2006,09,11,04,31,8.50
2006,09,11,04,32,8.50
2006,09,11,04,33,8.50
2006,09,11,04,34,8.50
2006,09,11,04,35,8.50
2006,09,11,04,36,8.40
2006,09,11,04,37,8.40
2006,09,11,04,38,8.40
2006,09,11,04,39,8.40
2006,09,11,04,40,8.50
2006,09,11,04,41,8.50
2006,09,11,04,42,8.50
2006,09,11,04,43,8.60
2006,09,11,04,44,8.60
2006,09,11,04,45,8.60
2006,09,11,04,46,8.60
2006,09,11,04,47,8.50
2006,09,11,04,48,8.40
2006,09,11,04,49,8.30
2006,09,11,04,50,8.20
2006,09,11,04,51,8.20
2006,09,11,04,52,8.10
2006,09,11,04,53,8.10
2006,09,11,04,54,8.10
2006,09,11,04,55,8.10
2006,09,11,04,56,8.10
2006,09,11,04,57,8.10
2006,09,11,04,58,8.20
2006,09,11,04,59,8.20
2006,09,11,05,00,8.30
2006,09,11,05,01,8.30
2006,09,11,05,02,8.30
2006,09,11,05,03,8.30
2006,09,11,05,04,8.30
2006,09,11,05,05,8.30
2006,09,11,05,06,8.30
2006,09,11,05,07,8.20
2006,09,11,05,08,8.20
2006,09,11,05,09,8.10
2006,09,11,05,10,8.00
2006,09,11,05,11,8.00
2006,09,11,05,12,8.00
2006,09,11,05,13,7.90
2006,09,11,05,14,7.90
2006,09,11,05,15,7.90
2006,09,11,05,16,7.90
2006,09,11,05,17,8.00
2006,09,11,05,18,8.00
2006,09,11,05,19,8.00
2006,09,11,05,20,8.10
2006,09,11,05,21,8.10
2006,09,11,05,22,8.10
2006,09,11,05,23,8.00
2006,09,11,05,24,8.00
2006,09,11,05,25,7.90
2006,09,11,05,26,7.90
2006,09,11,05,27,7.90
2006,09,11,05,28,7.80
2006,09,11,05,29,7.90
2006,09,11,05,30,7.90
2006,09,11,05,31,7.90
2006,09,11,05,32,7.90
2006,09,11,05,33,8.00
2006,09,11,05,34,8.00
2006,09,11,05,35,8.10
2006,09,11,05,36,8.10
2006,09,11,05,37,8.10
2006,09,11,05,38,8.10
2006,09,11,05,39,8.20
2006,09,11,05,40,8.20
2006,09,11,05,41,8.20
2006,09,11,05,42,8.20
2006,09,11,05,43,8.20
2006,09,11,05,44,8.20
2006,09,11,05,45,8.20
2006,09,11,05,46,8.30
2006,09,11,05,47,8.30
2006,09,11,05,48,8.30
2006,09,11,05,49,8.30
2006,09,11,05,50,8.40
2006,09,11,05,51,8.40
2006,09,11,05,52,8.40
2006,09,11,05,53,8.50
2006,09,11,05,54,8.50
2006,09,11,05,55,8.50
2006,09,11,05,56,8.50
2006,09,11,05,57,8.60
2006,09,11,05,58,8.60
2006,09,11,05,59,8.60
2006,09,11,06,00,8.60
2006,09,11,06,01,8.70
2006,09,11,06,02,8.70
2006,09,11,06,03,8.70
2006,09,11,06,04,8.70
2006,09,11,06,05,8.70
2006,09,11,06,06,8.70
2006,09,11,06,07,8.70
2006,09,11,06,08,8.70
2006,09,11,06,09,8.70
2006,09,11,06,10,8.60
2006,09,11,06,11,8.60
2006,09,11,06,12,8.50
2006,09,11,06,13,8.50
2006,09,11,06,14,8.40
2006,09,11,06,15,8.40
2006,09,11,06,16,8.50
2006,09,11,06,17,8.50
2006,09,11,06,18,8.50
2006,09,11,06,19,8.60
2006,09,11,06,20,8.60
2006,09,11,06,21,8.60
2006,09,11,06,22,8.60
2006,09,11,06,23,8.60
2006,09,11,06,24,8.50
2006,09,11,06,25,8.40
2006,09,11,06,26,8.40
2006,09,11,06,27,8.30
2006,09,11,06,28,8.20
2006,09,11,06,29,8.20
2006,09,11,06,30,8.10
2006,09,11,06,31,8.00
2006,09,11,06,32,8.00
2006,09,11,06,33,8.00
2006,09,11,06,34,8.00
2006,09,11,06,35,8.00
2006,09,11,06,36,7.90
2006,09,11,06,37,7.90
2006,09,11,06,38,7.90
2006,09,11,06,39,8.00
2006,09,11,06,40,8.00
2006,09,11,06,41,8.00
2006,09,11,06,42,8.00
2006,09,11,06,43,8.10
2006,09,11,06,44,8.10
2006,09,11,06,45,8.20
2006,09,11,06,46,8.20
2006,09,11,06,47,8.20
2006,09,11,06,48,8.10
2006,09,11,06,49,8.10
2006,09,11,06,50,8.10
2006,09,11,06,51,8.20
2006,09,11,06,52,8.20
2006,09,11,06,53,8.20
2006,09,11,06,54,8.20
2006,09,11,06,55,8.20
2006,09,11,06,56,8.20
2006,09,11,06,57,8.20
2006,09,11,06,58,8.20
2006,09,11,06,59,8.30
2006,09,11,07,00,8.30
2006,09,11,07,01,8.30
2006,09,11,07,02,8.30
2006,09,11,07,03,8.30
2006,09,11,07,04,8.30
2006,09,11,07,05,8.30
2006,09,11,07,06,8.30
2006,09,11,07,07,8.30
2006,09,11,07,08,8.30
2006,09,11,07,09,8.20
2006,09,11,07,10,8.20
2006,09,11,07,11,8.20
2006,09,11,07,12,8.20
2006,09,11,07,13,8.20
2006,09,11,07,14,8.20
2006,09,11,07,15,8.20
2006,09,11,07,16,8.20
2006,09,11,07,17,8.20
2006,09,11,07,18,8.20
2006,09,11,07,19,8.20
2006,09,11,07,20,8.30
2006,09,11,07,21,8.40
2006,09,11,07,22,8.40
2006,09,11,07,23,8.50
2006,09,11,07,24,8.50
2006,09,11,07,25,8.70
2006,09,11,07,26,8.70
2006,09,11,07,27,8.80
2006,09,11,07,28,8.80
2006,09,11,07,29,8.90
2006,09,11,07,30,8.90
2006,09,11,07,31,8.90
2006,09,11,07,32,8.90
2006,09,11,07,33,8.90
2006,09,11,07,34,8.90
2006,09,11,07,35,8.80
2006,09,11,07,36,8.80
2006,09,11,07,37,8.80
2006,09,11,07,38,8.90
2006,09,11,07,39,8.90
2006,09,11,07,40,8.90
2006,09,11,07,41,8.90
2006,09,11,07,42,9.00
2006,09,11,07,43,9.10
2006,09,11,07,44,9.20
2006,09,11,07,45,9.20
2006,09,11,07,46,9.20
2006,09,11,07,47,9.20
2006,09,11,07,48,9.20
2006,09,11,07,49,9.20
2006,09,11,07,50,9.20
2006,09,11,07,51,9.30
2006,09,11,07,52,9.40
2006,09,11,07,53,9.40
2006,09,11,07,54,9.50
2006,09,11,07,55,9.60
2006,09,11,07,56,9.70
2006,09,11,07,57,9.70
2006,09,11,07,58,9.80
2006,09,11,07,59,9.80
2006,09,11,08,00,9.90
2006,09,11,08,01,10.00
2006,09,11,08,02,10.10
2006,09,11,08,03,10.10
2006,09,11,08,04,10.20
2006,09,11,08,05,10.30
2006,09,11,08,06,10.40
2006,09,11,08,07,10.50
2006,09,11,08,08,10.60
2006,09,11,08,09,10.60
2006,09,11,08,10,10.70
2006,09,11,08,11,10.80
2006,09,11,08,12,10.90
2006,09,11,08,13,11.00
2006,09,11,08,14,11.10
2006,09,11,08,15,11.20
2006,09,11,08,16,11.30
2006,09,11,08,17,11.50
2006,09,11,08,18,11.60
2006,09,11,08,19,11.70
2006,09,11,08,20,11.80
2006,09,11,08,21,12.00
2006,09,11,08,22,12.10
2006,09,11,08,23,12.20
2006,09,11,08,24,12.40
2006,09,11,08,25,12.50
2006,09,11,08,26,12.60
2006,09,11,08,27,12.80
2006,09,11,08,28,12.90
2006,09,11,08,29,13.10
2006,09,11,08,30,13.20
2006,09,11,08,31,13.40
2006,09,11,08,32,13.60
2006,09,11,08,33,13.70
2006,09,11,08,34,13.90
2006,09,11,08,35,14.10
2006,09,11,08,36,14.30
2006,09,11,08,37,14.40
2006,09,11,08,38,14.60
2006,09,11,08,39,14.70
2006,09,11,08,40,14.80
2006,09,11,08,41,15.00
2006,09,11,08,42,15.10
2006,09,11,08,43,15.20
2006,09,11,08,44,15.30
2006,09,11,08,45,15.30
2006,09,11,08,46,15.40
2006,09,11,08,47,15.50
2006,09,11,08,48,15.50
2006,09,11,08,49,15.60
2006,09,11,08,50,15.70
2006,09,11,08,51,15.70
2006,09,11,08,52,15.80
2006,09,11,08,53,15.80
2006,09,11,08,54,15.80
2006,09,11,08,55,15.80
2006,09,11,08,56,15.80
2006,09,11,08,57,15.80
2006,09,11,08,58,15.80
2006,09,11,08,59,15.80
2006,09,11,09,00,15.80
2006,09,11,09,01,15.80
2006,09,11,09,02,15.80
2006,09,11,09,03,15.80
2006,09,11,09,04,15.70
2006,09,11,09,05,15.70
2006,09,11,09,06,15.60
2006,09,11,09,07,15.60
2006,09,11,09,08,15.60
2006,09,11,09,09,15.50
2006,09,11,09,10,15.50
2006,09,11,09,11,15.50
2006,09,11,09,12,15.50
2006,09,11,09,13,15.50
2006,09,11,09,14,15.50
2006,09,11,09,15,15.50
2006,09,11,09,16,15.40
2006,09,11,09,17,15.40
2006,09,11,09,18,15.40
2006,09,11,09,19,15.30
2006,09,11,09,20,15.30
2006,09,11,09,21,15.30
2006,09,11,09,22,15.30
2006,09,11,09,23,15.30
2006,09,11,09,24,15.40
2006,09,11,09,25,15.40
2006,09,11,09,26,15.50
2006,09,11,09,27,15.50
2006,09,11,09,28,15.60
2006,09,11,09,29,15.60
2006,09,11,09,30,15.70
2006,09,11,09,31,15.70
2006,09,11,09,32,15.80
2006,09,11,09,33,15.80
2006,09,11,09,34,15.80
2006,09,11,09,35,15.80
2006,09,11,09,36,15.80
2006,09,11,09,37,15.80
2006,09,11,09,38,15.80
2006,09,11,09,39,15.80
2006,09,11,09,40,15.80
2006,09,11,09,41,15.80
2006,09,11,09,42,15.80
2006,09,11,09,43,15.80
2006,09,11,09,44,15.70
2006,09,11,09,45,15.70
2006,09,11,09,46,15.80
2006,09,11,09,47,15.80
2006,09,11,09,48,15.80
2006,09,11,09,49,15.80
2006,09,11,09,50,15.90
2006,09,11,09,51,16.00
2006,09,11,09,52,16.10
2006,09,11,09,53,16.10
2006,09,11,09,54,16.20
2006,09,11,09,55,16.20
2006,09,11,09,56,16.30
2006,09,11,09,57,16.40
2006,09,11,09,58,16.40
2006,09,11,09,59,16.50
2006,09,11,10,00,16.60
2006,09,11,10,01,16.70
2006,09,11,10,02,16.60
2006,09,11,10,03,16.60
2006,09,11,10,04,16.50
2006,09,11,10,05,16.40
2006,09,11,10,06,16.50
2006,09,11,10,07,16.60
2006,09,11,10,08,16.60
2006,09,11,10,09,16.60
2006,09,11,10,10,16.60
2006,09,11,10,11,16.60
2006,09,11,10,12,16.50
2006,09,11,10,13,16.40
2006,09,11,10,14,16.40
2006,09,11,10,15,16.40
2006,09,11,10,16,16.60
2006,09,11,10,17,16.60
2006,09,11,10,18,16.70
2006,09,11,10,19,16.70
2006,09,11,10,20,16.80
2006,09,11,10,21,16.90
2006,09,11,10,22,16.90
2006,09,11,10,23,16.90
2006,09,11,10,24,17.00
2006,09,11,10,25,16.90
2006,09,11,10,26,16.90
2006,09,11,10,27,16.80
2006,09,11,10,28,16.80
2006,09,11,10,29,16.80
2006,09,11,10,30,16.80
2006,09,11,10,31,16.80
2006,09,11,10,32,16.80
2006,09,11,10,33,16.90
2006,09,11,10,34,16.90
2006,09,11,10,35,17.00
2006,09,11,10,36,16.90
2006,09,11,10,37,16.90
2006,09,11,10,38,17.00
2006,09,11,10,39,17.00
2006,09,11,10,40,17.10
2006,09,11,10,41,17.10
2006,09,11,10,42,17.10
2006,09,11,10,43,17.10
2006,09,11,10,44,17.00
2006,09,11,10,45,17.00
2006,09,11,10,46,17.00
2006,09,11,10,47,17.00
2006,09,11,10,48,17.10
2006,09,11,10,49,17.10
2006,09,11,10,50,17.10
2006,09,11,10,51,17.10
2006,09,11,10,52,17.10
2006,09,11,10,53,17.10
2006,09,11,10,54,17.00
2006,09,11,10,55,17.00
2006,09,11,10,56,17.00
2006,09,11,10,57,16.90
2006,09,11,10,58,16.80
2006,09,11,10,59,16.80
2006,09,11,11,00,16.70
2006,09,11,11,01,16.70
2006,09,11,11,02,16.70
2006,09,11,11,03,16.70
2006,09,11,11,04,16.60
2006,09,11,11,05,16.60
2006,09,11,11,06,16.60
2006,09,11,11,07,16.70
2006,09,11,11,08,16.70
2006,09,11,11,09,16.70
2006,09,11,11,10,16.70
2006,09,11,11,11,16.80
2006,09,11,11,12,16.80
2006,09,11,11,13,16.90
2006,09,11,11,14,16.90
2006,09,11,11,15,16.90
2006,09,11,11,16,17.00
2006,09,11,11,17,17.00
2006,09,11,11,18,16.90
2006,09,11,11,19,16.90
2006,09,11,11,20,16.90
2006,09,11,11,21,17.00
2006,09,11,11,22,17.00
2006,09,11,11,23,17.00
2006,09,11,11,24,17.00
2006,09,11,11,25,17.00
2006,09,11,11,26,17.10
2006,09,11,11,27,17.20
2006,09,11,11,28,17.30
2006,09,11,11,29,17.30
2006,09,11,11,30,17.30
2006,09,11,11,31,17.30
2006,09,11,11,32,17.30
2006,09,11,11,33,17.40
2006,09,11,11,34,17.40
2006,09,11,11,35,17.40
2006,09,11,11,36,17.30
2006,09,11,11,37,17.30
2006,09,11,11,38,17.30
2006,09,11,11,39,17.30
2006,09,11,11,40,17.30
2006,09,11,11,41,17.40
2006,09,11,11,42,17.50
2006,09,11,11,43,17.60
2006,09,11,11,44,17.70
2006,09,11,11,45,17.80
2006,09,11,11,46,17.80
2006,09,11,11,47,17.80
2006,09,11,11,48,17.70
2006,09,11,11,49,17.70
2006,09,11,11,50,17.70
2006,09,11,11,51,17.60
2006,09,11,11,52,17.60
2006,09,11,11,53,17.50
2006,09,11,11,54,17.50
2006,09,11,11,55,17.50
2006,09,11,11,56,17.40
2006,09,11,11,57,17.40
2006,09,11,11,58,17.50
2006,09,11,11,59,17.50
2006,09,11,12,00,17.60
2006,09,11,12,01,17.60
2006,09,11,12,02,17.60
2006,09,11,12,03,17.50
2006,09,11,12,04,17.50
2006,09,11,12,05,17.50
2006,09,11,12,06,17.50
2006,09,11,12,07,17.60
2006,09,11,12,08,17.70
2006,09,11,12,09,17.70
2006,09,11,12,10,17.80
2006,09,11,12,11,17.90
2006,09,11,12,12,17.80
2006,09,11,12,13,17.80
2006,09,11,12,14,17.80
2006,09,11,12,15,17.70
2006,09,11,12,16,17.80
2006,09,11,12,17,17.80
2006,09,11,12,18,17.90
2006,09,11,12,19,17.90
2006,09,11,12,20,18.10
2006,09,11,12,21,18.10
2006,09,11,12,22,18.20
2006,09,11,12,23,18.20
2006,09,11,12,24,18.20
2006,09,11,12,25,18.20
2006,09,11,12,26,18.20
2006,09,11,12,27,18.20
2006,09,11,12,28,18.20
2006,09,11,12,29,18.20
2006,09,11,12,30,18.30
2006,09,11,12,31,18.40
2006,09,11,12,32,18.40
2006,09,11,12,33,18.50
2006,09,11,12,34,18.60
2006,09,11,12,35,18.70
2006,09,11,12,36,18.80
2006,09,11,12,37,18.90
2006,09,11,12,38,18.90
2006,09,11,12,39,18.90
2006,09,11,12,40,18.90
2006,09,11,12,41,18.90
2006,09,11,12,42,18.90
2006,09,11,12,43,18.90
2006,09,11,12,44,18.90
2006,09,11,12,45,18.90
2006,09,11,12,46,18.90
2006,09,11,12,47,19.00
2006,09,11,12,48,19.10
2006,09,11,12,49,19.10
2006,09,11,12,50,19.20
2006,09,11,12,51,19.30
2006,09,11,12,52,19.40
2006,09,11,12,53,19.50
2006,09,11,12,54,19.60
2006,09,11,12,55,19.60
2006,09,11,12,56,19.70
2006,09,11,12,57,19.70
2006,09,11,12,58,19.70
2006,09,11,12,59,19.70
2006,09,11,13,00,19.80
2006,09,11,13,01,19.80
2006,09,11,13,02,19.80
2006,09,11,13,03,19.70
2006,09,11,13,04,19.70
2006,09,11,13,05,19.70
2006,09,11,13,06,19.70
2006,09,11,13,07,19.70
2006,09,11,13,08,19.70
2006,09,11,13,09,19.70
2006,09,11,13,10,19.70
2006,09,11,13,11,19.70
2006,09,11,13,12,19.70
2006,09,11,13,13,19.80
2006,09,11,13,14,19.70
2006,09,11,13,15,19.70
2006,09,11,13,16,19.60
2006,09,11,13,17,19.60
2006,09,11,13,18,19.50
2006,09,11,13,19,19.50
2006,09,11,13,20,19.60
2006,09,11,13,21,19.60
2006,09,11,13,22,19.70
2006,09,11,13,23,19.70
2006,09,11,13,24,19.70
2006,09,11,13,25,19.70
2006,09,11,13,26,19.70
2006,09,11,13,27,19.80
2006,09,11,13,28,19.90
2006,09,11,13,29,19.90
2006,09,11,13,30,19.90
2006,09,11,13,31,20.00
2006,09,11,13,32,20.10
2006,09,11,13,33,20.10
2006,09,11,13,34,20.20
2006,09,11,13,35,20.20
2006,09,11,13,36,20.20
2006,09,11,13,37,20.20
2006,09,11,13,38,20.20
2006,09,11,13,39,20.20
2006,09,11,13,40,20.20
2006,09,11,13,41,20.20
2006,09,11,13,42,20.20
2006,09,11,13,43,20.40
2006,09,11,13,44,20.40
2006,09,11,13,45,20.50
2006,09,11,13,46,20.50
2006,09,11,13,47,20.60
2006,09,11,13,48,20.60
2006,09,11,13,49,20.60
2006,09,11,13,50,20.60
2006,09,11,13,51,20.50
2006,09,11,13,52,20.40
2006,09,11,13,53,20.20
2006,09,11,13,54,20.20
2006,09,11,13,55,20.20
2006,09,11,13,56,20.20
2006,09,11,13,57,20.20
2006,09,11,13,58,20.10
2006,09,11,13,59,20.10
2006,09,11,14,00,20.10
2006,09,11,14,01,20.00
2006,09,11,14,02,19.90
2006,09,11,14,03,19.90
2006,09,11,14,04,19.90
2006,09,11,14,05,19.90
2006,09,11,14,06,20.00
2006,09,11,14,07,20.10
2006,09,11,14,08,20.20
2006,09,11,14,09,20.20
2006,09,11,14,10,20.30
2006,09,11,14,11,20.40
2006,09,11,14,12,20.50
2006,09,11,14,13,20.60
2006,09,11,14,14,20.70
2006,09,11,14,15,20.70
2006,09,11,14,16,20.70
2006,09,11,14,17,20.70
2006,09,11,14,18,20.80
2006,09,11,14,19,20.80
2006,09,11,14,20,20.80
2006,09,11,14,21,20.80
2006,09,11,14,22,20.80
2006,09,11,14,23,20.80
2006,09,11,14,24,20.80
2006,09,11,14,25,20.80
2006,09,11,14,26,20.70
2006,09,11,14,27,20.70
2006,09,11,14,28,20.70
2006,09,11,14,29,20.70
2006,09,11,14,30,20.80
2006,09,11,14,31,20.70
2006,09,11,14,32,20.70
2006,09,11,14,33,20.80
2006,09,11,14,34,20.90
2006,09,11,14,35,20.80
2006,09,11,14,36,20.80
2006,09,11,14,37,20.80
2006,09,11,14,38,20.80
2006,09,11,14,39,20.90
2006,09,11,14,40,20.90
2006,09,11,14,41,21.00
2006,09,11,14,42,21.00
2006,09,11,14,43,21.10
2006,09,11,14,44,21.20
2006,09,11,14,45,21.20
2006,09,11,14,46,21.30
2006,09,11,14,47,21.30
2006,09,11,14,48,21.40
2006,09,11,14,49,21.40
2006,09,11,14,50,21.60
2006,09,11,14,51,21.60
2006,09,11,14,52,21.60
2006,09,11,14,53,21.60
2006,09,11,14,54,21.70
2006,09,11,14,55,21.80
2006,09,11,14,56,21.90
2006,09,11,14,57,21.90
2006,09,11,14,58,22.00
2006,09,11,14,59,22.10
2006,09,11,15,00,22.30
2006,09,11,15,01,22.40
2006,09,11,15,02,22.60
2006,09,11,15,03,22.60
2006,09,11,15,04,22.70
2006,09,11,15,05,22.80
2006,09,11,15,06,23.00
2006,09,11,15,07,23.10
2006,09,11,15,08,23.10
2006,09,11,15,09,23.10
2006,09,11,15,10,23.10
2006,09,11,15,11,23.10
2006,09,11,15,12,23.20
2006,09,11,15,13,23.20
2006,09,11,15,14,23.10
2006,09,11,15,15,23.00
2006,09,11,15,16,22.70
2006,09,11,15,17,22.40
2006,09,11,15,18,22.00
2006,09,11,15,19,21.80
2006,09,11,15,20,21.60
2006,09,11,15,21,21.40
2006,09,11,15,22,21.30
2006,09,11,15,23,21.10
2006,09,11,15,24,21.10
2006,09,11,15,25,21.00
2006,09,11,15,26,21.00
2006,09,11,15,27,21.00
2006,09,11,15,28,21.00
2006,09,11,15,29,21.00
2006,09,11,15,30,21.00
2006,09,11,15,31,20.90
2006,09,11,15,32,21.00
2006,09,11,15,33,21.00
2006,09,11,15,34,21.10
2006,09,11,15,35,21.30
2006,09,11,15,36,21.30
2006,09,11,15,37,21.50
2006,09,11,15,38,21.60
2006,09,11,15,39,21.70
2006,09,11,15,40,21.90
2006,09,11,15,41,22.10
2006,09,11,15,42,22.20
2006,09,11,15,43,22.30
2006,09,11,15,44,22.40
2006,09,11,15,45,22.50
2006,09,11,15,46,22.50
2006,09,11,15,47,22.60
2006,09,11,15,48,22.50
2006,09,11,15,49,22.60
2006,09,11,15,50,22.60
2006,09,11,15,51,22.60
2006,09,11,15,52,22.60
2006,09,11,15,53,22.60
2006,09,11,15,54,22.50
2006,09,11,15,55,22.50
2006,09,11,15,56,22.40
2006,09,11,15,57,22.40
2006,09,11,15,58,22.30
2006,09,11,15,59,22.20
2006,09,11,16,00,22.10
2006,09,11,16,01,22.10
2006,09,11,16,02,22.10
2006,09,11,16,03,22.00
2006,09,11,16,04,22.00
2006,09,11,16,05,22.00
2006,09,11,16,06,22.00
2006,09,11,16,07,22.00
2006,09,11,16,08,22.10
2006,09,11,16,09,22.10
2006,09,11,16,10,22.10
2006,09,11,16,11,22.10
2006,09,11,16,12,22.10
2006,09,11,16,13,22.10
2006,09,11,16,14,22.10
2006,09,11,16,15,22.10
2006,09,11,16,16,22.10
2006,09,11,16,17,22.10
2006,09,11,16,18,22.00
2006,09,11,16,19,22.00
2006,09,11,16,20,22.00
2006,09,11,16,21,22.10
2006,09,11,16,22,22.00
2006,09,11,16,23,22.10
2006,09,11,16,24,22.10
2006,09,11,16,25,22.20
2006,09,11,16,26,22.30
2006,09,11,16,27,22.30
2006,09,11,16,28,22.30
2006,09,11,16,29,22.40
2006,09,11,16,30,22.50
2006,09,11,16,31,22.60
2006,09,11,16,32,22.60
2006,09,11,16,33,22.60
2006,09,11,16,34,22.50
2006,09,11,16,35,22.60
2006,09,11,16,36,22.60
2006,09,11,16,37,22.60
2006,09,11,16,38,22.60
2006,09,11,16,39,22.60
2006,09,11,16,40,22.60
2006,09,11,16,41,22.60
2006,09,11,16,42,22.70
2006,09,11,16,43,22.60
2006,09,11,16,44,22.60
2006,09,11,16,45,22.60
2006,09,11,16,46,22.60
2006,09,11,16,47,22.60
2006,09,11,16,48,22.70
2006,09,11,16,49,22.80
2006,09,11,16,50,22.80
2006,09,11,16,51,22.90
2006,09,11,16,52,22.90
2006,09,11,16,53,22.90
2006,09,11,16,54,22.90
2006,09,11,16,55,22.90
2006,09,11,16,56,22.90
2006,09,11,16,57,22.90
2006,09,11,16,58,22.90
2006,09,11,16,59,22.80
2006,09,11,17,00,22.70
2006,09,11,17,01,22.70
2006,09,11,17,02,22.60
2006,09,11,17,03,22.50
2006,09,11,17,04,22.50
2006,09,11,17,05,22.40
2006,09,11,17,06,22.40
2006,09,11,17,07,22.40
2006,09,11,17,08,22.40
2006,09,11,17,09,22.40
2006,09,11,17,10,22.40
2006,09,11,17,11,22.40
2006,09,11,17,12,22.30
2006,09,11,17,13,22.30
2006,09,11,17,14,22.40
2006,09,11,17,15,22.30
2006,09,11,17,16,22.30
2006,09,11,17,17,22.20
2006,09,11,17,18,22.20
2006,09,11,17,19,22.20
2006,09,11,17,20,22.20
2006,09,11,17,21,22.10
2006,09,11,17,22,22.10
2006,09,11,17,23,22.10
2006,09,11,17,24,22.00
2006,09,11,17,25,22.00
2006,09,11,17,26,22.00
2006,09,11,17,27,22.00
2006,09,11,17,28,22.10
2006,09,11,17,29,22.10
2006,09,11,17,30,22.10
2006,09,11,17,31,22.10
2006,09,11,17,32,22.00
2006,09,11,17,33,22.00
2006,09,11,17,34,22.00
2006,09,11,17,35,22.00